Find Starlink 34041

NORAD ID: 63844 Int'l Des: 2025-093 Owner: SPXS Country: US Constellation: starlink operational
LEOCIRCULAR

Live Position

Loading 3D Globe...

About Starlink 34041

Description loading...

Upcoming Passes

Passes for default location (London). Set your location on the main map for personalized predictions.

Altitude History

Loading altitude history...

Two-Line Element Set

1 63844U 25093J 26104.68424860 .00005265 00000-0 20072-3 0 9997
2 63844 43.0016 234.9225 0001185 252.4379 107.6343 15.27577981 53470
Epoch: Apr 14, 2026 • Age: 10 hours

Current Status

Altitude 482.2 km
Velocity 7.63 km/s
Sub-Earth Point 4.25°N, 165.79°E
Launch Date May 7, 2025
Age 0.9 years
Type internet

Technical Details

Classification Payload
Mass 575.00 kg
Dry Mass 530.00 kg
Total Mass 575.00 kg
Length 0.30 m
Diameter 4.10 m
Span 29.00 m
Shape Box + pan
Manufacturer SPXS
Bus Type Starlink V2MO
Phase Status In Orbit
Owner/State SPXS/US

Most Searched